Weather History for Kansas City International, MO

Change the Weather History Date:

Tuesday, March 12, 2013

  Actual Average Record
Temperature  
Mean Temperature 37 °F 43 °F  
Max Temperature 46 °F 54 °F 80 °F (1916)
Min Temperature 27 °F 32 °F -7 °F (1998)
Degree Days  
Heating Degree Days 28 22  
Month to date heating degree days 359 292  
Since 1 July heating degree days 4091 4337  
Cooling Degree Days 0 0  
Month to date cooling degree days 0 0  
Year to date cooling degree days 0 0  
Moisture  
Dew Point 21 °F    
Average Humidity 60    
Maximum Humidity 78    
Minimum Humidity 41    
Precipitation  
Precipitation T in 0.06 in 2.34 in (1961)
Month to date precipitation 1.10 0.79  
Year to date precipitation 3.99 3.32  
Snow  
Snow T in 0.00 in 5.00 in (1984)
Month to date snowfall T 1.0  
Since 1 July snowfall 25.2 17.2  
Snow Depth 0.00 in    
Sea Level Pressure  
Sea Level Pressure 30.19 in    
Wind  
Wind Speed 10 mph (WNW)    
Max Wind Speed 23 mph    
Max Gust Speed 31 mph    
Visibility 10 miles    
Events      
T = Trace of Precipitation, MM = Missing Value Source: NWS Daily Summary

Daily Weather History Graph

Daily Weather History Graph

Search for Another Location

Airport:

Trip Planner

Search our weather history database for the weather conditions in past years. The results will help you decide how hot, cold, wet, or windy it might be!

Date:

Astronomy

Mar. 12, 2013 Rise Set
Actual Time 7:34 AM CDT 7:23 PM CDT
Civil Twilight 7:07 AM CDT 7:49 PM CDT
Nautical Twilight 6:36 AM CDT 8:20 PM CDT
Astronomical Twilight 6:05 AM CDT 8:52 PM CDT
Moon 7:42 AM CDT (3/12) 8:38 PM CDT (3/12)
Length of Visible Light 12h 42m
Length of Day
11h 48m
New Moon, 1% of the Moon is Illuminated
Mar 12
New Moon
Mar 19
First Quarter
Mar 27
Full
Apr 2
Last Quarter
Apr 10
New

Hourly Weather History & Observations

Time (CDT) Temp. Windchill Dew Point Humidity Pressure Visibility Wind Dir Wind Speed Gust Speed Precip Events Conditions
12:53 AM 28.9 °F 23.9 °F 19.9 °F 69% 30.04 in 10.0 mi SW 4.6 mph - N/A   Partly Cloudy
1:53 AM 30.0 °F 24.1 °F 19.0 °F 64% 30.04 in 10.0 mi West 5.8 mph - N/A   Scattered Clouds
2:53 AM 30.9 °F 26.2 °F 18.0 °F 59% 30.06 in 10.0 mi West 4.6 mph - N/A   Scattered Clouds
3:53 AM 30.0 °F 23.2 °F 19.0 °F 64% 30.07 in 10.0 mi West 6.9 mph - N/A   Overcast
4:53 AM 30.0 °F 22.4 °F 19.0 °F 64% 30.08 in 10.0 mi WNW 8.1 mph - N/A   Overcast
5:53 AM 28.9 °F 21.1 °F 19.9 °F 69% 30.12 in 10.0 mi WNW 8.1 mph - N/A   Mostly Cloudy
6:53 AM 28.0 °F 20.8 °F 21.0 °F 75% 30.13 in 10.0 mi NW 6.9 mph - N/A   Partly Cloudy
7:53 AM 28.0 °F 21.7 °F 21.0 °F 75% 30.15 in 10.0 mi West 5.8 mph - N/A   Mostly Cloudy
8:53 AM 30.9 °F 24.3 °F 24.1 °F 76% 30.17 in 10.0 mi WSW 6.9 mph - N/A   Mostly Cloudy
9:53 AM 34.0 °F 28.0 °F 26.1 °F 73% 30.19 in 10.0 mi WSW 6.9 mph - N/A   Overcast
10:53 AM 39.0 °F 32.8 °F 25.0 °F 57% 30.20 in 10.0 mi West 9.2 mph - N/A   Mostly Cloudy
11:53 AM 42.1 °F 33.3 °F 23.0 °F 47% 30.21 in 10.0 mi WNW 19.6 mph 28.8 mph N/A   Mostly Cloudy
12:53 PM 44.1 °F 36.5 °F 23.0 °F 43% 30.22 in 10.0 mi WNW 17.3 mph 31.1 mph N/A   Mostly Cloudy
1:53 PM 43.0 °F 34.5 °F 23.0 °F 45% 30.22 in 10.0 mi WNW 19.6 mph 24.2 mph N/A   Mostly Cloudy
2:53 PM 43.0 °F 34.8 °F 21.9 °F 43% 30.20 in 10.0 mi NW 18.4 mph 28.8 mph N/A   Mostly Cloudy
3:53 PM 41.0 °F 34.3 °F 24.1 °F 51% 30.22 in 10.0 mi NW 11.5 mph 20.7 mph N/A   Overcast
4:53 PM 39.9 °F 32.5 °F 21.9 °F 49% 30.23 in 10.0 mi NW 12.7 mph 23.0 mph 0.00 in   Mostly Cloudy
5:53 PM 39.0 °F 31.4 °F 21.0 °F 49% 30.24 in 10.0 mi NW 12.7 mph 24.2 mph N/A   Mostly Cloudy
6:53 PM 37.0 °F 28.5 °F 21.9 °F 54% 30.27 in 10.0 mi NW 13.8 mph 24.2 mph 0.00 in   Scattered Clouds
7:53 PM 33.1 °F 25.5 °F 19.9 °F 59% 30.29 in 10.0 mi NW 9.2 mph - N/A   Scattered Clouds
8:53 PM 32.0 °F 24.2 °F 19.9 °F 61% 30.30 in 10.0 mi NW 9.2 mph - N/A   Clear
9:53 PM 30.9 °F 22.8 °F 19.0 °F 61% 30.32 in 10.0 mi NNW 9.2 mph - N/A   Clear
10:53 PM 30.0 °F 22.4 °F 19.0 °F 64% 30.34 in 10.0 mi NW 8.1 mph - N/A   Clear
11:53 PM 28.9 °F 20.4 °F 19.0 °F 67% 30.35 in 10.0 mi NW 9.2 mph - N/A   Clear